Location: UFOWorks Observatory
(42.1050°N, 72.2350°W)
Time: 07:25:44
(UTC-05:00)

ISS - Visible Passes

Search period start: 30 January 2015 00:00
Search period end: 09 February 2015 00:00
Orbit: 401 x 408 km, 51.6° (Epoch: 29 January)

Date Brightness Start Highest point End Pass type
(mag) Time Alt. Az. Time Alt. Az. Time Alt. Az.
03 Feb -0.5 19:23:04 10° SW 19:23:39 14° SW 19:23:39 14° SW visible
04 Feb -2.1 18:31:12 10° SSW 18:33:57 27° SE 18:33:57 27° SE visible
05 Feb -1.2 17:39:56 10° SSE 17:41:47 15° SE 17:43:44 10° E visible
05 Feb -1.8 19:14:41 10° WSW 19:16:48 36° WSW 19:16:48 36° WSW visible
06 Feb -3.3 18:22:18 10° SW 18:25:33 66° SE 18:26:53 32° ENE visible
06 Feb 0.3 19:59:29 10° WNW 19:59:32 10° WNW 19:59:32 10° WNW visible
07 Feb -2.0 19:06:38 10° W 19:09:30 34° NNW 19:09:30 34° NNW visible
08 Feb -2.8 18:13:54 10° WSW 18:17:07 55° NNW 18:19:22 18° NE visible
08 Feb 0.1 19:51:46 10° WNW 19:52:02 11° NW 19:52:02 11° NW visible
